Regional Weather Roundup
Issued by NWS

Home | Current Version | Previous Version | Text Only | Print | Product List | Glossary Off
Versions: 1 2 3 4 5 6 7 8 9 10 11 12 13 14 15 16 17 18 19 20 21 22 23 24 25 26 27 28 29 30 31 32 33 34 35 36 37 38 39 40 41 42 43 44 45 46 47 48 49 50

765
ASUS43 KMPX 220301
RWRMN
WEATHER ROUNDUP FOR MINNESOTA
NATIONAL WEATHER SERVICE TWIN CITIES/CHANHASSEN MN
900 PM CST SUN JAN 21 2018


NOTE: "FAIR" INDICATES FEW OR NO CLOUDS BELOW 12,000 FEET WITH NO
SIGNIFICANT WEATHER AND/OR OBSTRUCTIONS TO VISIBILITY. N/A MEANS
CURRENT SKY AND/OR WEATHER CONDITIONS ARE NOT AVAILABLE.

MNZ060>063-068>070-220400-
   Twin Cities Metro

CITY           SKY/WX    TMP DP  RH WIND       PRES   REMARKS
TWIN CITIES    CLOUDY    36  30  79 NE6       29.94F
ST PAUL        CLOUDY    36  29  75 VRB3      29.96F
CRYSTAL        CLOUDY    35  26  69 NE6       29.94F WCI  30
BLAINE         CLOUDY    37  30  75 NE8       29.95F
LAKEVILLE      CLOUDY    34  30  86 NE7       29.93F WCI  28
EDEN PRAIRIE   CLOUDY    36  28  73 NE7       29.93F
SOUTH ST PAUL  CLOUDY    37  29  73 N3        29.94F
LAKE ELMO      CLOUDY    36  30  80 NE7       29.95F
$$
MNZ001>005-007-008-013>017-022>024-027-028-220400-
   Northwest Minnesota

CITY           SKY/WX    TMP DP  RH WIND       PRES   REMARKS
BEMIDJI        CLOUDY    24  23  98 N5        30.06S WCI  18
HALLOCK        CLOUDY    23  19  86 N3        30.12S
ROSEAU         CLOUDY    25  19  80 N3        30.11S
WARROAD        CLOUDY    25  21  86 CALM      30.11S
THIEF RVR FALL CLOUDY    23  21  93 NE6       30.11S WCI  16
CROOKSTON      MOCLDY    25  23  93 CALM      30.12S
FOSSTON        CLOUDY    21  21 100 N5        30.09S FOG     WCI  15
DETROIT LAKES  CLOUDY    28  25  86 NE8       30.05S WCI  20
MOORHEAD       CLOUDY    25  21  86 N12       30.10S WCI  14
PARK RAPIDS    CLOUDY    25  22  88 N9        30.03S FOG     WCI  15
MAHNOMEN       CLOUDY    24  23  96 N9        30.07F WCI  14
$$
MNZ006-009>011-018-025>026-220400-
   North Central Minnesota

CITY           SKY/WX    TMP DP  RH WIND       PRES   REMARKS
BAUDETTE       CLOUDY    25  23  92 VRB5      30.08S WCI  19
FLAG ISLAND    CLOUDY    25  21  86 NE3       30.10S
INTL FALLS     CLOUDY    26  24  92 NE6       30.09R FOG     WCI  19
WASKISH        CLOUDY    25  25 100 CALM      30.09R
BIG FORK       CLOUDY    27  25  93 CALM      30.07S FOG
LONGVILLE      CLOUDY    27  25  93 N5        30.05R WCI  21
GRAND RAPIDS   CLOUDY    26  24  92 NE5       30.07R WCI  20
CRANE LAKE     CLOUDY    25  23  93 CALM      30.10S FOG
ORR            CLOUDY    25  21  86 CALM      30.05S
COOK           CLOUDY    25  25 100 CALM      30.07S FOG
WALKER         CLOUDY    24  23  96 N6        30.06R FOG     WCI  17
$$
MNZ012-019>021-037-220400-
   Northeast Minnesota

CITY           SKY/WX    TMP DP  RH WIND       PRES   REMARKS
DULUTH         FOG       29  28  96 E14       30.03S VSB 1/4 WCI  18
HIBBING        CLOUDY    26  24  92 NE5       30.05R WCI  20
EVELETH        CLOUDY    25  22  89 NE6       30.06R WCI  18
DULUTH HARBOR  CLOUDY    32  30  93 NE18      30.08R FOG     WCI  20
TWO HARBORS    LGT SNOW  32  28  86 NE12      30.04S WCI  23
SILVER BAY     DRIZZLE   28  28 100 E9G17     30.06S WCI  20
GRAND MARAIS     N/A     27  23  85 NE9       30.13R WCI  18
G MARAIS ARPRT CLOUDY    19  18  93 N5        30.06R FOG     WCI  13
$$
MNZ029>031-032-039>041-046>048-054>057-064-220400-
   West Central Minnesota

CITY           SKY/WX    TMP DP  RH WIND       PRES   REMARKS
FERGUS FALLS   CLOUDY    27  25  93 N9        30.04S WCI  17
WHEATON        CLOUDY    27  25  93 N12       30.07R WCI  16
MORRIS         CLOUDY    28  27  93 N10       30.01R WCI  19
ALEXANDRIA     CLOUDY    28  25  88 N8        30.01R WCI  20
ELBOW LAKE     FAIR      26  25  95 N7        30.03S WCI  18
WADENA         CLOUDY    25  21  86 N8        30.03R WCI  16
GLENWOOD       FAIR      30  27  86 N10       29.99S WCI  21
APPLETON       CLOUDY    30  28  93 N15       29.99F WCI  19
BENSON         CLOUDY    34  28  80 NE8       30.01S WCI  27
ORTONVILLE     PTCLDY    27  25  93 N17       30.01F WCI  14
MADISON        MOCLDY    32  28  86 N16G24    29.99F WCI  21
WILLMAR        FAIR      34  28  80 N12       29.98F WCI  25
$$
MNZ033>034-036-042>043-049>051-058-059-220400-
   Central Minnesota

CITY           SKY/WX    TMP DP  RH WIND       PRES   REMARKS
ST CLOUD       CLOUDY    33  27  78 N8        29.97F WCI  26
SAUK CENTRE      N/A     31  26  82 N7        30.00S WCI  24
PAYNESVILLE    CLOUDY    32  29  89 N9        29.99R WCI  24
AITKIN         FAIR      25  21  86 N6        30.02S WCI  18
PINE RIVER     CLOUDY    25  21  86 N10       30.07S WCI  15
BRAINERD       FAIR      27  21  78 N6        30.03R WCI  20
STAPLES        FAIR      23  21  93 NE9       30.03S WCI  13
LONG PRAIRIE   FAIR      28  27  93 NW7       30.00S WCI  21
LITTLE FALLS   MOCLDY    30  21  69 N5        30.01S WCI  25
LITCHFIELD     CLOUDY    36  30  80 N9        29.97R
BUFFALO        CLOUDY    34  28  80 N8        29.96F WCI  27
MAPLE LAKE     CLOUDY    35  31  84 MISG      29.97S
HUTCHINSON     CLOUDY    35  30  81 N10G16    29.95R WCI  28
$$
MNZ037-044-045-052-053-220400-
   East Central Minnesota

CITY           SKY/WX    TMP DP  RH WIND       PRES   REMARKS
PRINCETON      CLOUDY    36  28  75 N7        29.98F
MORA           FAIR      32  27  80 NE3       30.01F
CAMBRIDGE      CLOUDY    36  27  69 N6        29.98F
RUSH CITY      CLOUDY    33  28  79 N7        29.99F WCI  27
MOOSE LAKE     CLOUDY    30  28  93 CALM      30.01S
HINCKLEY       CLOUDY    32  30  93 N8        30.01S WCI  25
CLOQUET        SNOW      28  28 100 E13G18    30.03S VSB 1/4 WCI  18
MCGREGOR       FAIR      28  27  93 N6        30.03S WCI  22
$$
MNZ071>073-080-081-089-090-097-098-220400-
   Southwest Minnesota

CITY           SKY/WX    TMP DP  RH WIND       PRES   REMARKS
MONTEVIDEO     CLOUDY    32  30  93 N8        29.97F WCI  25
GRANITE FALLS  CLOUDY    35  31  87 N13       29.97S WCI  26
CANBY          CLOUDY    31  29  92 NW9G17    30.00R WCI  23
MARSHALL       CLOUDY    31  29  92 N8        29.98R WCI  23
REDWOOD FALLS  CLOUDY    34  29  82 N7        29.94S WCI  28
OLIVIA         CLOUDY    34  30  86 N14       29.96R WCI  24
PIPESTONE      MOCLDY    30  27  86 NE16      29.88F WCI  19
WINDOM         CLOUDY    34  19  55 N16       29.90F WCI  23
WORTHINGTON    CLOUDY    33  29  85 NE21G26   29.87F WCI  21
JACKSON        CLOUDY    32  30  93 NE14      29.88F WCI  22
TRACY          CLOUDY    32  31  95 N8        29.94R WCI  25
SLAYTON        CLOUDY    32  29  91 N13G18    29.92S WCI  22
$$
MNZ065>067-074>077-082>085-091>093-220400-
   South Central Minnesota

CITY           SKY/WX    TMP DP  RH WIND       PRES   REMARKS
MANKATO        CLOUDY    35  29  78 NE10      29.91S WCI  27
NEW ULM        CLOUDY    36  28  75 NE6       29.94R
ST JAMES       CLOUDY    34  30  86 N12       29.93R WCI  25
FAIRMONT       CLOUDY    34  30  85 N10       29.89R WCI  26
FARIBAULT      CLOUDY    36  30  80 N8        29.91F
OWATONNA       CLOUDY    36  30  80 NE10      29.89F
WASECA         CLOUDY    36  32  87 NE13      29.90F
ALBERT LEA     CLOUDY    36  28  75 NE12      29.86F
$$
MNZ078>079-086>088-094>096-220400-
   Southeast Minnesota

CITY           SKY/WX    TMP DP  RH WIND       PRES   REMARKS
ROCHESTER      CLOUDY    36  30  79 NE13      29.87F
RED WING       CLOUDY    39  27  60 NE6       29.92F
STANTON        CLOUDY    35  31  86 NE8       29.91F WCI  28
DODGE CENTER   CLOUDY    36  30  80 NE9       29.87F
WINONA         CLOUDY    37  32  81 NE5       29.89F
PRESTON        CLOUDY    36  30  80 NE9       29.87S
$$
ABBREVIATIONS USED IN REMARKS
   TC - TEMPERATURES IN CELSIUS
  WCI - WIND CHILL INDEX
   HX - HEAT INDEX
  VSB - VISIBILITY
$$




USA.gov is the U.S. government's official web portal to all federal, state and local government web resources and services.